This demonstration page uses our WeatherBlox Daily Observations layout. Learn more.

Left ArrowRight Arrow

Hourly Observations for March 10, 2015

Temp ( °F °C ) Dew Point ( °F °C ) Humidity (%) Winds ( mph kmh ) Pressure ( in mb ) Visibility ( mi km ) Precip ( " mm )
12:53 am 00:53 Clear 34 1.1 24 -4.4 67 67 SW 12 19 29.91 1013 10 16 N/A
1:53 am 01:53 Clear 31 -0.6 24 -4.4 76 76 W 5 7 29.93 1014 10 16 N/A
2:53 am 02:53 Clear 27 -2.8 23 -5 85 85 SW 3 6 29.95 1014 10 16 N/A
3:53 am 03:53 Clear 28 -2.2 23 -5 81 81 N N/A 29.96 1014 10 16 N/A
4:53 am 04:53 Clear 26 -3.3 23 -5 88 88 N N/A 29.96 1015 10 16 N/A
5:53 am 05:53 Clear 25 -3.9 21 -6.1 85 85 N N/A 29.98 1015 10 16 N/A
6:53 am 06:53 Clear 22 -5.6 19 -7.2 89 89 N N/A 30.01 1016 10 16 N/A
7:53 am 07:53 Sunny 23 -5 21 -6.1 92 92 SE 5 7 30.03 1017 10 16 N/A
8:53 am 08:53 Sunny 28 -2.2 24 -4.4 85 85 N N/A 30.04 1017 10 16 N/A
9:53 am 09:53 Sunny 37 2.8 26 -3.3 65 65 E 6 9 30.03 1017 10 16 N/A
10:53 am 10:53 Sunny 44 6.7 28 -2.2 53 53 NE 7 11 30.03 1017 10 16 N/A
11:53 am 11:53 Sunny 49 9.4 28 -2.2 44 44 E 5 7 30.01 1016 10 16 N/A
12:53 pm 12:53 Sunny 58 14.4 23 -5 26 26 SW 12 19 29.96 1014 10 16 N/A
1:53 pm 13:53 Sunny 61 16.1 22 -5.6 22 22 SSW 12 19 29.93 1014 10 16 N/A
2:53 pm 14:53 Sunny 63 17.2 19 -7.2 18 18 WSW 14 22 29.92 1013 10 16 N/A
3:53 pm 15:53 Sunny 64 17.8 19 -7.2 18 18 SW 15 24 29.91 1013 10 16 N/A
4:53 pm 16:53 Sunny 64 17.8 20 -6.7 18 18 WSW 13 20 29.91 1013 10 16 N/A
5:53 pm 17:53 Sunny 63 17.2 21 -6.1 20 20 SW 7 11 29.90 1013 10 16 N/A
6:53 pm 18:53 Sunny 52 11.1 21 -6.1 30 30 S 8 13 29.91 1013 10 16 N/A
7:53 pm 19:53 Clear 44 6.7 20 -6.7 38 38 S 10 17 29.93 1014 10 16 N/A
8:53 pm 20:53 Clear 40 4.4 20 -6.7 45 45 WSW 3 6 29.93 1014 10 16 N/A
9:53 pm 21:53 Clear 37 2.8 21 -6.1 52 52 NW 6 9 29.93 1014 10 16 N/A
10:53 pm 22:53 Clear 36 2.2 22 -5.6 57 57 W 5 7 29.93 1014 10 16 N/A
11:53 pm 23:53 Clear 33 0.6 22 -5.6 64 64 N N/A 29.93 1014 10 16 N/A

Powered by AerisWeather